Regional Weather Roundup
Issued by NWS Albany, NY

Home | Current Version | Previous Version | Graphics & Text | Print | Product List | Glossary Off
Versions: 1 2 3 4 5 6 7 8 9 10 11 12 13 14 15 16 17 18 19 20 21 22 23 24 25 26 27

000
ASUS41 KALY 180110
RWRALY

NEW YORK STATE HOURLY WEATHER ROUNDUP
NATIONAL WEATHER SERVICE ALBANY NY
800 PM EST SUN DEC 17 2017

NOTE: "FAIR" INDICATES FEW OR NO CLOUDS BELOW 12,000 FEET WITH NO
SIGNIFICANT WEATHER AND/OR NO OBSTRUCTIONS TO VISIBILITY.

NYZ032-033-038>043-046>054-057>066-NYZ062>081-082-084-180200-
EAST


CITY           SKY/WX    TMP DP  RH WIND       PRES   REMARKS
ALBANY         CLOUDY    22  10  60 N5        30.28S WCI  16
GLENS FALLS    CLOUDY    10   6  84 E3        30.28R
POUGHKEEPSIE   CLOUDY    28  15  58 N3        30.27R
NEWBURGH       CLOUDY    27  19  74 CALM      30.26R
MONTGOMERY     CLOUDY    27  19  72 N5        30.24S WCI  22
WHITE PLAINS   CLOUDY    30  22  72 CALM      30.24S
ISLIP          CLOUDY    32  25  75 NE3       30.27S
NEW YORK CITY  CLOUDY    36  25  64 E7        30.27S WCI  30
CENTRAL PARK   CLOUDY    36  26  67 CALM      30.28F
$$

NYZ005>009-017-018-044>046-055-056-180200-
CENTRAL


CITY           SKY/WX    TMP DP  RH WIND       PRES   REMARKS
FULTON         CLOUDY    16  12  84 CALM      30.20F
SYRACUSE       CLOUDY    20  14  77 E7        30.20F WCI  11
ROME           CLOUDY    18  13  80 E6        30.24F WCI  10
ELMIRA         PTCLDY    28  21  75 NE5       30.16F WCI  23
BINGHAMTON     LGT SNOW  22  18  85 SE5       30.13S FOG     WCI  16
MONTICELLO     FLURRIES  25  21  85 SE5       30.19S WCI  19
$$

NYZ026>034-041>043-087-180200-
NORTH


CITY           SKY/WX    TMP DP  RH WIND       PRES   REMARKS
WATERTOWN      PTCLDY    10   3  73 E5        30.23F WCI   2
FORT DRUM      NOT AVBL
OGDENSBURG     FAIR       2   0  88 E3        30.26S
MASSENA        CLOUDY    -2  -4  91 CALM      30.29F
SARANAC LAKE   CLOUDY     1  -3  83 CALM      30.12S
PLATTSBURGH    CLOUDY     9   3  77 W5        30.29F WCI   1
$$

NYZ001>004-010>016-019>021-085-180200-
WEST


CITY           SKY/WX    TMP DP  RH WIND       PRES   REMARKS
NIAGARA FALLS  CLOUDY    25  16  68 E9        30.13F WCI  15
BUFFALO        CLOUDY    24  18  77 NE10      30.12F WCI  14
DUNKIRK        CLOUDY    26  21  81 NE6       30.11S WCI  19
JAMESTOWN      CLOUDY    30  28  92 S8        30.06F WCI  22
WELLSVILLE     CLOUDY    32  25  75 SE5       30.08S WCI  27
ROCHESTER      CLOUDY    24  17  74 E7        30.18S WCI  16
PENN YAN       LGT SNOW  23  17  78 S3        30.16F
$$

             KEY
       WCI = WIND CHILL INDEX
       VSB = VISIBILITY
       HX  = HEAT INDEX
$$




USA.gov is the U.S. government's official web portal to all federal, state and local government web resources and services.